Weather History for KLRD - April, 2013

Change the Weather History Date:

Wednesday, April 3, 2013

  Actual Average Record
Temperature  
Mean Temperature 69 °F 73 °F  
Max Temperature 77 °F 85 °F 105 °F (1989)
Min Temperature 60 °F 61 °F 32 °F (1987)
Degree Days  
Heating Degree Days 0 1  
Month to date heating degree days 0 3  
Since 1 July heating degree days 513 916  
Cooling Degree Days 4 9  
Month to date cooling degree days 32 27  
Year to date cooling degree days 401 285  
Growing Degree Days 18 (Base 50)    
Moisture  
Dew Point 59 °F    
Average Humidity 81    
Maximum Humidity 97    
Minimum Humidity 65    
Precipitation  
Precipitation 0.01 in 0.03 in 0.95 in (1914)
Month to date precipitation 0.01 0.09  
Year to date precipitation 0.76 3.05  
Sea Level Pressure  
Sea Level Pressure 29.95 in    
Wind  
Wind Speed 13 mph (NNE)    
Max Wind Speed 23 mph    
Max Gust Speed 29 mph    
Visibility 9 miles    
Events Rain    
T = Trace of Precipitation, MM = Missing Value Source: NWS Daily Summary

Daily Weather History Graph

Daily Weather History Graph

Search for Another Location

Airport or City:

Trip Planner

Search our weather history database for the weather conditions in past years. The results will help you decide how hot, cold, wet, or windy it might be!

Date:

Astronomy

Apr. 03, 2013 Rise Set
Actual Time 7:25 AM CDT 7:56 PM CDT
Civil Twilight 7:02 AM CDT 8:20 PM CDT
Nautical Twilight 6:34 AM CDT 8:47 PM CDT
Astronomical Twilight 6:06 AM CDT 9:15 PM CDT
Moon 2:34 AM CDT 1:42 PM CDT
Length of Visible Light 13h 17m
Length of Day
12h 30m
Last Quarter, 44% of the Moon is Illuminated
Apr 3
Last Quarter
Apr 10
New
Apr 18
First Quarter
Apr 25
Full
May 2
Last Quarter

Hourly Weather History & Observations

Time (CDT) Temp. Dew Point Humidity Pressure Visibility Wind Dir Wind Speed Gust Speed Precip Events Conditions
12:56 AM 74.8 °F 68.0 °F 79% 29.81 in 10.0 mi East 11.5 mph - N/A   Partly Cloudy
1:56 AM 72.9 °F 68.0 °F 85% 29.80 in 10.0 mi East 9.2 mph - N/A   Clear
2:41 AM 73.4 °F 68.0 °F 83% 29.84 in 10.0 mi East 9.2 mph - N/A   Mostly Cloudy
2:56 AM 72.9 °F 68.0 °F 85% 29.81 in 10.0 mi East 9.2 mph - N/A   Overcast
3:56 AM 73.9 °F 68.0 °F 82% 29.81 in 10.0 mi East 11.5 mph - N/A   Overcast
4:46 AM 71.6 °F 68.0 °F 88% 29.83 in 5.0 mi ENE 11.5 mph - N/A   Overcast
4:56 AM 68.9 °F 66.9 °F 93% 29.81 in 4.0 mi ENE 10.4 mph - N/A   Overcast
5:13 AM 68.0 °F 66.2 °F 94% 29.85 in 7.0 mi NE 9.2 mph - N/A   Overcast
5:41 AM 66.2 °F 64.4 °F 94% 29.85 in 10.0 mi NE 13.8 mph - N/A   Overcast
5:56 AM 66.9 °F 64.9 °F 93% 29.83 in 7.0 mi NE 11.5 mph - 0.00 in   Overcast
6:06 AM 66.2 °F 64.4 °F 94% 29.86 in 6.0 mi NE 11.5 mph - 0.00 in Rain Light Rain
6:27 AM 66.2 °F 64.4 °F 94% 29.87 in 2.5 mi NE 12.7 mph - 0.00 in Rain Light Rain
6:35 AM 66.2 °F 64.4 °F 94% 29.88 in 5.0 mi NE 10.4 mph - 0.00 in Rain Light Rain
6:56 AM 64.9 °F 63.9 °F 96% 29.85 in 9.0 mi NE 11.5 mph - 0.00 in   Overcast
7:06 AM 64.4 °F 64.4 °F 100% 29.88 in 10.0 mi NE 13.8 mph - 0.00 in   Overcast
7:26 AM 64.4 °F 62.6 °F 94% 29.91 in 10.0 mi NNE 13.8 mph - 0.00 in   Overcast
7:38 AM 64.4 °F 60.8 °F 88% 29.92 in 10.0 mi NNE 12.7 mph - 0.00 in   Overcast
7:56 AM 63.9 °F 59.9 °F 87% 29.92 in 10.0 mi NNE 12.7 mph - 0.00 in   Overcast
8:28 AM 62.6 °F 60.8 °F 94% 29.95 in 3.0 mi NNE 12.7 mph - 0.01 in Rain Light Rain
8:56 AM 63.0 °F 59.9 °F 90% 29.94 in 3.0 mi NNE 15.0 mph - 0.01 in   Overcast
9:56 AM 63.0 °F 59.0 °F 87% 29.96 in 10.0 mi NNE 16.1 mph - 0.00 in   Overcast
10:04 AM 62.6 °F 59.0 °F 88% 29.99 in 10.0 mi NNE 17.3 mph - N/A   Overcast
10:29 AM 62.6 °F 57.2 °F 82% 30.01 in 10.0 mi NNE 19.6 mph 25.3 mph N/A   Overcast
10:56 AM 63.0 °F 56.8 °F 80% 29.99 in 10.0 mi North 13.8 mph 20.7 mph N/A   Overcast
11:56 AM 63.0 °F 54.9 °F 75% 30.00 in 10.0 mi North 15.0 mph - N/A   Overcast
12:56 PM 61.9 °F 56.8 °F 84% 30.00 in 5.0 mi NW 12.7 mph - 0.00 in Rain Light Rain
1:32 PM 62.6 °F 55.4 °F 77% 30.03 in 10.0 mi NW 13.8 mph - 0.00 in   Overcast
1:56 PM 61.9 °F 52.9 °F 72% 30.01 in 10.0 mi NW 16.1 mph - 0.00 in   Overcast
2:05 PM 62.6 °F 53.6 °F 72% 30.03 in 10.0 mi NNW 17.3 mph 24.2 mph N/A   Overcast
2:56 PM 61.9 °F 52.0 °F 70% 30.00 in 10.0 mi North 16.1 mph - N/A   Overcast
3:56 PM 61.0 °F 50.9 °F 69% 30.00 in 10.0 mi North 18.4 mph - N/A   Overcast
4:56 PM 61.0 °F 52.0 °F 72% 29.99 in 10.0 mi North 12.7 mph - N/A   Overcast
5:03 PM 62.6 °F 51.8 °F 68% 30.02 in 10.0 mi North 12.7 mph - N/A   Overcast
5:56 PM 63.0 °F 52.0 °F 67% 29.99 in 10.0 mi North 12.7 mph - N/A   Overcast
6:56 PM 63.9 °F 52.0 °F 65% 30.00 in 10.0 mi North 12.7 mph - N/A   Mostly Cloudy
7:18 PM 64.4 °F 51.8 °F 64% 30.03 in 10.0 mi North 12.7 mph - N/A   Overcast
7:45 PM 64.4 °F 51.8 °F 64% 30.04 in 10.0 mi North 10.4 mph - N/A   Overcast
7:56 PM 63.9 °F 52.0 °F 65% 30.03 in 10.0 mi North 12.7 mph - N/A   Overcast
8:56 PM 63.9 °F 52.0 °F 65% 30.06 in 10.0 mi NNE 8.1 mph - N/A   Overcast
9:56 PM 61.9 °F 52.9 °F 72% 30.09 in 10.0 mi NNE 6.9 mph - N/A   Overcast
10:56 PM 61.9 °F 52.9 °F 72% 30.13 in 10.0 mi NE 10.4 mph - N/A   Overcast
11:56 PM 59.9 °F 50.9 °F 72% 30.14 in 10.0 mi NE 13.8 mph - N/A   Overcast